Find Asterix

NORAD ID: 1778 Int'l Des: 1965-096 Owner: CNES Country: F operational
LEO

Live Position

Loading 3D Globe...

About Asterix

Description loading...

Upcoming Passes

Passes for default location (London). Set your location on the main map for personalized predictions.

Altitude History

Loading altitude history...

Two-Line Element Set

1 1778U 65096A 26106.45430896 .00000165 00000-0 47846-4 0 9998
2 1778 34.2531 173.3020 0739398 123.1288 244.2526 13.49764287956447
Epoch: Apr 16, 2026 • Age: 25 hours

Current Status

Altitude 573.4 km
Velocity 7.83 km/s
Sub-Earth Point 33.25°N, 114.51°W
Type other

Most Searched